Regional Weather Roundup
Issued by NWS Charleston, SC

Current Version | Previous Version | Graphics & Text | Print | Product List | Glossary On
Versions: 1 2 3 4 5 6 7 8 9 10 11 12 13 14 15 16 17 18 19 20 21 22 23 24 25 26 27 28 29 30 31 32 33 34 35 36 37 38 39 40 41 42 43 44 45 46 47 48 49 50
000
ASUS42 KCHS 240927
RWRCHS

REGIONAL WEATHER ROUNDUP
NATIONAL WEATHER SERVICE CHARLESTON SC
400 AM EST FRI FEB 24 2017

NOTE: "FAIR" INDICATES FEW OR NO CLOUDS BELOW 12,000 FEET WITH NO
SIGNIFICANT WEATHER AND/OR OBSTRUCTIONS TO VISIBILITY.

NOT ALL STATIONS ARE QUALITY CONTROLLED. USE DATA WITH CAUTION...
ESPECIALLY DEWPOINT OBSERVATIONS.

SCZ027-030-031-034>040-042>050-241000-
...SOUTHEAST SOUTH CAROLINA...

CITY           SKY/WX    TMP DP  RH WIND       PRES   REMARKS
N CHARLESTON   PTCLDY    57  55  93 N6        29.86S
WATERFRONT PRK   N/A     60  60 100 N5        29.85S
MOUNT PLEASANT FAIR      59  57  94 CALM      29.86S FOG
JOHNS ISLAND   FAIR      59  59 100 N6        29.86R
PINOPOLIS        N/A     57  57 100 VRB2      29.78S
MONCKS CORNER  FAIR      54  52  94 CALM      29.87S FOG
SUMMERVILLE      N/A     52  52 100 CALM      29.88S FOG
BEAUFORT MCAS  CLEAR     57  57 100 NE7       29.86S
BEAUFORT ARPT  FAIR      59  59 100 NE6       29.85S
HILTON HEAD IS CLEAR     61  61 100 N7        29.86S
WALTERBORO     SUNNY     54  54 100 CALM      29.87F
ALLENDALE      FAIR      57  57 100 CALM      29.87R FOG

...SOUTHERN MIDLANDS AND PEE DEE...

CITY           SKY/WX    TMP DP  RH WIND       PRES   REMARKS
GEORGETOWN     FAIR      55  55 100 NE3       29.88S
KINGSTREE      FAIR      50  46  87 CALM      29.89R FOG
ORANGEBURG     CLEAR     57  55  93 NE5       29.87F
BARNWELL       FAIR      55  54  94 CALM      29.88S
AIKEN          FAIR      50  48  93 CALM      29.92S
MANNING        FAIR      52  50  93 MISG      29.89S
COLUMBIA       CLEAR     51  48  89 CALM      29.88F
SUMTER         CLEAR     54  52  94 NE6       29.87S
FLORENCE       CLEAR     55  55 100 N3        29.90S
MYRTLE BEACH   CLEAR     58  56  93 N6        29.88F
N MYRTLE BEACH CLEAR     57  57 100 NE5       29.88S

$$

GAZ063-065-086>088-099>101-113>116-118-119-134>141-150-241000-
...SOUTHEAST GEORGIA...

CITY           SKY/WX    TMP DP  RH WIND       PRES   REMARKS
SAVANNAH ARPT  PTCLDY    61  58  90 NE8       29.84F
HUNTER AAF     CLEAR     60  60 100 NE7       29.82F
FORT STEWART   PTCLDY    60  58  93 CALM      29.82R
STATESBORO     FOG       56  32  40 CALM      29.87R VSB 1/4
SYLVANIA       MOSUNNY  N/A N/A N/A CALM      29.87S FOG
CLAXTON        FAIR     N/A N/A N/A CALM      29.86S

...CSRA...CENTRAL AND FAR SOUTHEAST GEORGIA...

CITY           SKY/WX    TMP DP  RH WIND       PRES   REMARKS
THOMSON        CLEAR     50  50 100 CALM      29.93S
AUGUSTA-BUSH   PTCLDY    53  51  93 CALM      29.88S FOG
AUGUSTA-DANIEL CLEAR     61  55  81 E5        29.89S
SWAINSBORO     FAIR      59  59 100 NE3       29.88S
VIDALIA        PTCLDY    59  59 100 NE5       29.86S
EASTMAN        FAIR      52  52 100 CALM      29.89S FOG
HAZLEHURST     FAIR      60  60 100 NE3       29.85S
ALMA           PTCLDY    59  59 100 CALM      29.84S
WAYCROSS       FOG       59  59 100 CALM      29.83S VSB 1/2
JESUP          FAIR      61  59  94 NE3       29.84S
BAXLEY         FAIR      59  59 100 N3        29.85R FOG
BRUNSWICK      CLEAR     63  63 100 NE7       29.83R
SAINT SIMONS   CLOUDY    64  61  90 N9        29.82S

$$

SCZ027-028-034-036>038-045-046-048>050-GAZ119-141-241000-
...LAKE AND SUPPLEMENTAL COASTAL OBSERVATIONS...

STATION/POSITION TIME  TEMP    WIND        PRES    WAVE   SWELL
                       AIR SEA DIR/SP/G            HT/PER HT/PER/DIR
                 (UTC) (F)     (DEG/KT/KT) (MB)    (FT/S) (FT/S/D)
WINYAH BAY       0845   59      20/  4     1011.0S
LAKE MURRAY      0850   57        CALM     1011.9S
ACE BASIN NERRS  0830   60     360/  2     1011.0S
FORT PULASKI     0900   62 62   40/  5/  8 1010.7
SAPELO ISLAND    0900   62      20/  6     1010.0

$$

ANZ835-935-AMZ111-154-330-350-352-354-370-450-454-472-241000-
...C-MAN AND BUOY OBSERVATIONS...

STATION/POSITION TIME  TEMP    WIND        PRES    WAVE   SWELL
                       AIR SEA DIR/SP/G            HT/PER HT/PER/DIR
                 (UTC) (F)     (DEG/KT/KT) (MB)    (FT/S) (FT/S/D)
BUOY 41004       0850   70 70   60/ 10/ 12 1009.7S   9/11   8/130/11
BUOY 41008       0850   63 62   20/ 14/ 16 1009.1F   7/10   5/110/10
FOLLY BEACH CMAN 0900   61     340/  5/  5 1011.3F
CAPERS NEARSHORE 0808   61 60   40/ 12/ 14 1010.9F
FRIPP NEARSHORE  0908   62 61   20/  8/ 12 1010.3F


STATION/POSITION TIME  TEMP    WIND        PRES    WAVE   SWELL
                       AIR SEA DIR/SP/G            HT/PER HT/PER/DIR
                 (UTC) (F)     (DEG/KT/KT) (MB)    (FT/S) (FT/S/D)
5E ST. MARYS GA  0900      63                N/A     7/10   2/100/11
FRYING PAN BUOY  0910   71 72  100/ 14/ 16 1010.9
BUOY 41025       0850   71 73  130/ 12/ 14 1012.7S   7/ 7   7/130/ 7
CAPE LOOKOUT NC  0900   63      10/  4/  5 1012.1F
BUOY 41002       0850   69 69   90/ 23/ 29 1007.3F  12/ 8   8/ 80/11
BUOY 41010       NOT AVBL
ST AUGUSTINE FL  0900   65 66  360/ 16/ 17 1009.0R


$$




USA.gov is the U.S. government's official web portal to all federal, state and local government web resources and services.